"2010-09-27 00:00:00",196141,1.011,220.6,6.852,0.156,21.9,110.334,25.75,26.62,13.64,0,111.4,13.06,26.59,182.6
"2010-09-27 00:00:30",196142,1.366,219.8,8.16,0.238,21.89,110.3338,25.75,26.63,13.69,0,111.4,13.06,26.59,181.8
"2010-09-27 00:01:00",196143,1.408,221.1,5.264,0.091,21.85,110.3347,25.75,26.63,13.7,0,111.4,13.06,26.60,183.1
"2010-09-27 00:01:30",196144,1.175,204.7,15.53,0.15,21.87,110.3372,25.76,26.61,13.65,0,111.4,13.06,26.60,166.7
"2010-09-27 00:02:00",196145,1.053,209.6,7.52,0.156,21.85,110.3379,25.76,26.62,13.65,0,111.4,13.06,26.60,171.6
"2010-09-27 00:02:30",196146,0.765,209.1,7.506,0.07,21.96,110.337,25.76,26.62,13.65,0,111.4,13.05,26.60,171.1
"2010-09-27 00:03:00",196147,0.832,202.4,14.25,0.207,21.94,110.3356,25.76,26.62,13.62,0,111.4,13.05,26.60,164.4
"2010-09-27 00:03:30",196148,1.241,186.3,5.306,0.284,21.93,110.337,25.76,26.61,13.59,0,111.4,13.05,26.60,148.3
"2010-09-27 00:04:00",196149,0.914,180.6,3.581,0.087,21.89,110.3379,25.76,26.63,13.58,0,111.4,13.05,26.60,142.6
"2010-09-27 00:04:30",196150,0.81,181.6,4.015,0.056,21.94,110.3382,25.76,26.62,13.61,0,111.4,13.05,26.61,143.6
"2010-09-27 00:05:00",196151,1.138,191.3,2.772,0.083,21.87,110.3382,25.76,26.62,13.64,0,111.4,13.05,26.61,153.3
"2010-09-27 00:05:30",196152,1.085,186.4,5.217,0.078,21.9,110.3376,25.76,26.63,13.64,0,111.4,13.05,26.60,148.4
"2010-09-27 00:06:00",196153,0.824,188.3,7.613,0.064,21.83,110.337,25.76,26.62,13.62,0,111.4,13.05,26.60,150.3
"2010-09-27 00:06:30",196154,0.852,193.6,4.319,0.064,21.79,110.3354,25.76,26.62,13.65,0,111.4,13.05,26.60,155.6
"2010-09-27 00:07:00",196155,1.193,170,8.21,0.154,22,110.3356,25.76,26.63,13.6,0,111.4,13.05,26.60,132.0
"2010-09-27 00:07:30",196156,1.228,170,5.738,0.108,21.98,110.341,25.77,26.63,13.58,0,111.4,13.06,26.61,132.0
"2010-09-27 00:08:00",196157,0.979,175.4,14.29,0.162,21.87,110.3511,25.8,26.65,13.56,0,111.4,13.06,26.64,137.4
"2010-09-27 00:08:30",196158,1.022,185.1,8.87,0.178,21.87,110.353,25.8,26.64,13.56,0,111.4,13.06,26.64,147.1
"2010-09-27 00:09:00",196159,1.275,175.3,3.172,0.096,22.03,110.3564,25.81,26.66,13.53,0,111.4,13.06,26.65,137.3
"2010-09-27 00:09:30",196160,1.397,173.8,8.17,0.373,21.89,110.3609,25.82,26.66,13.61,0,111.4,13.06,26.66,135.8
"2010-09-27 00:10:00",196161,1.879,175.5,3.509,0.116,21.98,110.3511,25.8,26.67,13.69,0,111.4,13.06,26.64,137.5
"2010-09-27 00:10:30",196162,1.607,176.4,6.006,0.265,21.92,110.3401,25.77,26.66,13.67,0,111.4,13.06,26.61,138.4
"2010-09-27 00:11:00",196163,2.438,180,3.005,0.306,21.92,110.3379,25.76,26.64,13.63,0,111.4,13.06,26.60,142.0
"2010-09-27 00:11:30",196164,2.285,177.7,1.614,0.253,22,110.3348,25.75,26.65,13.65,0,111.4,13.06,26.60,139.7
"2010-09-27 00:12:00",196165,2.059,186.3,5.264,0.17,21.98,110.3306,25.74,26.63,13.63,0,111.4,13.06,26.59,148.3
"2010-09-27 00:12:30",196166,2.204,183.2,3.008,0.132,21.94,110.331,25.75,26.63,13.64,0,111.4,13.06,26.59,145.2
"2010-09-27 00:13:00",196167,2.119,181.7,4.117,0.137,22.05,110.33,25.74,26.63,13.64,0,111.4,13.06,26.58,143.7
"2010-09-27 00:13:30",196168,2.052,174.8,4.498,0.139,22.03,110.3325,25.75,26.64,13.65,0,111.4,13.06,26.59,136.8
"2010-09-27 00:14:00",196169,2.041,172.9,3.958,0.153,22.07,110.3307,25.74,26.62,13.65,0,111.4,13.06,26.59,134.9
"2010-09-27 00:14:30",196170,1.77,178.6,3.734,0.093,22.08,110.3317,25.75,26.62,13.66,0,111.4,13.06,26.59,140.6
"2010-09-27 00:15:00",196171,1.714,185.2,3.873,0.088,22.06,110.3276,25.74,26.61,13.67,0,111.4,13.06,26.58,147.2
"2010-09-27 00:15:30",196172,1.813,187,3.581,0.126,22.07,110.3243,25.73,26.61,13.67,0,111.4,13.06,26.57,149.0
"2010-09-27 00:16:00",196173,1.508,181.6,2.433,0.059,21.99,110.3167,25.71,26.6,13.68,0,111.4,13.06,26.55,143.6
"2010-09-27 00:16:30",196174,1.321,172.2,3.74,0.122,22.11,110.3138,25.7,26.59,13.65,0,111.4,13.06,26.54,134.2
"2010-09-27 00:17:00",196175,1.32,167.8,3.839,0.124,22.12,110.3208,25.72,26.6,13.65,0,111.4,13.06,26.56,129.8
"2010-09-27 00:17:30",196176,1.556,168.8,4.414,0.069,22.02,110.3238,25.73,26.61,13.64,0,111.4,13.06,26.57,130.8
"2010-09-27 00:18:00",196177,1.504,173.6,4.938,0.107,22.08,110.329,25.74,26.61,13.64,0,111.4,13.06,26.58,135.6
"2010-09-27 00:18:30",196178,1.461,182.5,3.541,0.089,22.12,110.3247,25.73,26.59,13.65,0,111.4,13.06,26.57,144.5
"2010-09-27 00:19:00",196179,1.226,176.6,2.453,0.109,22.17,110.3205,25.72,26.61,13.65,0,111.4,13.06,26.56,138.6
"2010-09-27 00:19:30",196180,1.215,175.7,1.931,0.062,22.18,110.3231,25.72,26.59,13.64,0,111.4,13.06,26.57,137.7
"2010-09-27 00:20:00",196181,1.481,168,4.573,0.147,22.06,110.319,25.71,26.61,13.66,0,111.4,13.06,26.56,130.0
"2010-09-27 00:20:30",196182,1.7,162.3,2.022,0.068,22.11,110.3262,25.73,26.6,13.68,0,111.4,13.06,26.57,124.3
"2010-09-27 00:21:00",196183,1.554,167,2.731,0.056,22.01,110.3266,25.73,26.6,13.68,0,111.4,13.06,26.58,129.0
"2010-09-27 00:21:30",196184,1.495,169.5,2.379,0.043,22.07,110.3252,25.73,26.6,13.67,0,111.4,13.06,26.57,131.5
"2010-09-27 00:22:00",196185,1.648,168.3,3.04,0.047,22.09,110.3238,25.73,26.58,13.65,0,111.4,13.06,26.57,130.3
"2010-09-27 00:22:30",196186,1.769,164.8,3.137,0.076,22.21,110.3245,25.73,26.59,13.67,0,111.4,13.06,26.57,126.8
"2010-09-27 00:23:00",196187,1.701,159.8,3.973,0.104,22.18,110.3242,25.73,26.59,13.66,0,111.4,13.06,26.57,121.8
"2010-09-27 00:23:30",196188,1.513,170.1,2.841,0.068,22.14,110.3239,25.73,26.59,13.68,0,111.4,13.06,26.57,132.1
"2010-09-27 00:24:00",196189,1.315,168.8,1.645,0.044,22.25,110.3239,25.73,26.58,13.72,0,111.4,13.06,26.57,130.8
"2010-09-27 00:24:30",196190,1.306,164.4,2.328,0.051,22.28,110.3239,25.73,26.57,13.71,0,111.4,13.06,26.57,126.4
"2010-09-27 00:25:00",196191,1.357,158.9,3.132,0.043,22.33,110.3225,25.72,26.56,13.7,0,111.4,13.06,26.56,120.9
"2010-09-27 00:25:30",196192,1.32,164.2,4.892,0.059,22.31,110.3208,25.72,26.57,13.7,0,111.4,13.07,26.56,126.2
"2010-09-27 00:26:00",196193,1.191,165.2,2.531,0.094,22.26,110.3207,25.72,26.57,13.7,0,111.4,13.07,26.56,127.2
"2010-09-27 00:26:30",196194,1.005,165.8,3.837,0.066,22.16,110.3165,25.71,26.56,13.71,0,111.4,13.07,26.55,127.8
"2010-09-27 00:27:00",196195,1.19,178.3,3.839,0.131,22.31,110.31,25.69,26.56,13.72,0,111.4,13.07,26.53,140.3
"2010-09-27 00:27:30",196196,1.33,173.9,7.089,0.059,22.37,110.3076,25.69,26.56,13.7,0,111.3,13.07,26.53,135.9
"2010-09-27 00:28:00",196197,1.403,177.5,6.884,0.081,22.32,110.3048,25.68,26.56,13.7,0,111.4,13.07,26.52,139.5
"2010-09-27 00:28:30",196198,1.352,186.1,4.603,0.113,22.33,110.3061,25.68,26.55,13.72,0,111.3,13.07,26.52,148.1
"2010-09-27 00:29:00",196199,1.149,177.1,2.139,0.064,22.33,110.3071,25.68,26.54,13.71,0,111.3,13.07,26.53,139.1
"2010-09-27 00:29:30",196200,1.075,173,3.442,0.075,22.28,110.3066,25.68,26.53,13.75,0,111.3,13.07,26.52,135.0
"2010-09-27 00:30:00",196201,0.934,174.7,2.307,0.104,22.29,110.3066,25.68,26.53,13.74,0,111.3,13.07,26.52,136.7
"2010-09-27 00:30:30",196202,1.079,168.4,4.919,0.084,22.29,110.3069,25.68,26.55,13.7,0,111.3,13.07,26.52,130.4
"2010-09-27 00:31:00",196203,1.104,156.4,1.434,0.054,22.34,110.3066,25.68,26.55,13.7,0,111.3,13.07,26.52,118.4
"2010-09-27 00:31:30",196204,1.102,155.7,2.989,0.051,22.36,110.3052,25.68,26.53,13.68,0,111.3,13.07,26.52,117.7
"2010-09-27 00:32:00",196205,1.07,154.1,0.97,0.06,22.35,110.3032,25.67,26.55,13.66,0,111.3,13.07,26.52,116.1
"2010-09-27 00:32:30",196206,1.114,154.6,1.929,0.097,22.37,110.301,25.67,26.54,13.66,0,111.3,13.07,26.51,116.6
"2010-09-27 00:33:00",196207,0.978,155.3,2.934,0.049,22.31,110.2996,25.66,26.55,13.65,0,111.3,13.07,26.51,117.3
"2010-09-27 00:33:30",196208,1.053,160.1,1.695,0.056,22.34,110.2996,25.66,26.55,13.67,0,111.3,13.07,26.51,122.1
"2010-09-27 00:34:00",196209,1.168,160.5,2.193,0.062,22.41,110.2996,25.66,26.54,13.72,0,111.3,13.08,26.51,122.5
"2010-09-27 00:34:30",196210,1.208,164,3.015,0.05,22.45,110.2996,25.66,26.53,13.73,0,111.3,13.08,26.51,126.0
"2010-09-27 00:35:00",196211,1.235,162.7,2.041,0.036,22.48,110.2987,25.66,26.53,13.73,0,111.3,13.08,26.50,124.7
"2010-09-27 00:35:30",196212,1.231,163.3,1.425,0.043,22.51,110.2983,25.66,26.53,13.71,0,111.3,13.08,26.50,125.3
"2010-09-27 00:36:00",196213,1.148,161.8,3.288,0.061,22.44,110.2951,25.65,26.55,13.72,0,111.3,13.08,26.49,123.8
"2010-09-27 00:36:30",196214,1.083,160.4,2.238,0.062,22.43,110.2937,25.65,26.54,13.73,0,111.3,13.07,26.49,122.4
"2010-09-27 00:37:00",196215,1.16,166.4,3.586,0.051,22.49,110.2927,25.65,26.53,13.74,0,111.3,13.07,26.49,128.4
"2010-09-27 00:37:30",196216,1.17,170.1,0.846,0.027,22.54,110.2911,25.64,26.52,13.73,0,111.3,13.07,26.48,132.1
"2010-09-27 00:38:00",196217,1.188,173.2,3.545,0.086,22.64,110.2916,25.64,26.51,13.75,0,111.3,13.07,26.49,135.2
"2010-09-27 00:38:30",196218,1.306,174.6,1.856,0.063,22.73,110.2918,25.64,26.52,13.79,0,111.3,13.07,26.49,136.6
"2010-09-27 00:39:00",196219,1.374,179,4.331,0.058,22.72,110.2856,25.63,26.51,13.83,0,111.3,13.07,26.47,141.0
"2010-09-27 00:39:30",196220,1.547,182.1,5.302,0.137,22.68,110.2879,25.63,26.5,13.92,0,111.3,13.07,26.48,144.1
"2010-09-27 00:40:00",196221,1.576,181.7,2.441,0.085,22.72,110.2854,25.63,26.48,13.93,0,111.3,13.07,26.47,143.7
"2010-09-27 00:40:30",196222,1.654,185.5,1.913,0.054,22.72,110.2724,25.59,26.47,14.04,0,111.3,13.07,26.44,147.5
"2010-09-27 00:41:00",196223,1.724,188.2,2.048,0.105,22.74,110.2659,25.58,26.47,14.1,0,111.3,13.07,26.42,150.2
"2010-09-27 00:41:30",196224,1.756,188.8,1.603,0.066,22.74,110.2604,25.56,26.46,14.1,0,111.3,13.08,26.40,150.8
"2010-09-27 00:42:00",196225,1.61,193.1,1.5,0.05,22.74,110.2604,25.56,26.45,14.09,0,111.3,13.08,26.40,155.1
"2010-09-27 00:42:30",196226,1.735,189.3,1.941,0.053,22.77,110.2607,25.56,26.44,14.02,0,111.3,13.08,26.41,151.3
"2010-09-27 00:43:00",196227,1.783,189.3,1.579,0.079,22.82,110.2675,25.58,26.43,13.97,0,111.3,13.08,26.42,151.3
"2010-09-27 00:43:30",196228,1.708,190.8,1.174,0.087,22.85,110.2681,25.58,26.43,13.97,0,111.3,13.08,26.42,152.8
"2010-09-27 00:44:00",196229,1.712,188.8,1.654,0.071,22.87,110.2691,25.59,26.43,13.98,0,111.3,13.08,26.43,150.8
"2010-09-27 00:44:30",196230,1.585,188.3,2.412,0.081,22.87,110.2694,25.59,26.43,13.99,0,111.3,13.08,26.43,150.3
"2010-09-27 00:45:00",196231,1.593,188.8,1.626,0.049,22.89,110.2694,25.59,26.44,13.99,0,111.3,13.08,26.43,150.8
"2010-09-27 00:45:30",196232,1.781,185.1,1.428,0.052,22.9,110.2688,25.59,26.42,13.95,0,111.3,13.08,26.43,147.1
"2010-09-27 00:46:00",196233,1.838,184.6,2.708,0.091,22.89,110.2677,25.58,26.43,13.95,0,111.2,13.09,26.42,146.6
"2010-09-27 00:46:30",196234,1.74,187.6,1.956,0.053,22.87,110.264,25.57,26.42,13.99,0,111.3,13.09,26.41,149.6
"2010-09-27 00:47:00",196235,1.657,186.2,1.709,0.071,22.92,110.2637,25.57,26.42,13.96,0,111.2,13.09,26.41,148.2
"2010-09-27 00:47:30",196236,1.501,190.9,2.213,0.073,22.91,110.2607,25.56,26.43,13.98,0,111.2,13.09,26.41,152.9
"2010-09-27 00:48:00",196237,1.393,188.9,1.461,0.031,22.9,110.2554,25.55,26.44,13.96,0,111.2,13.09,26.39,150.9
"2010-09-27 00:48:30",196238,1.397,195.6,2.285,0.04,22.85,110.251,25.54,26.43,13.97,0,111.2,13.09,26.38,157.6
"2010-09-27 00:49:00",196239,1.391,195.6,1.831,0.043,22.86,110.2509,25.54,26.43,13.98,0,111.2,13.09,26.38,157.6
"2010-09-27 00:49:30",196240,1.497,195,1.747,0.039,22.86,110.2546,25.55,26.42,14,0,111.2,13.09,26.39,157.0
"2010-09-27 00:50:00",196241,1.485,196.7,1.485,0.042,22.86,110.2542,25.55,26.42,14,0,111.2,13.09,26.39,158.7
"2010-09-27 00:50:30",196242,1.435,197.2,1.275,0.041,22.85,110.2561,25.55,26.41,14,0,111.2,13.09,26.39,159.2
"2010-09-27 00:51:00",196243,1.376,195.8,1.525,0.036,22.88,110.2592,25.56,26.38,14.02,0,111.2,13.09,26.40,157.8
"2010-09-27 00:51:30",196244,1.453,198.2,1.362,0.074,22.89,110.2575,25.56,26.41,14.07,0,111.2,13.09,26.40,160.2
"2010-09-27 00:52:00",196245,1.745,201.7,2.428,0.082,22.86,110.2489,25.53,26.4,14.04,0,111.2,13.09,26.38,163.7
"2010-09-27 00:52:30",196246,1.602,200.5,0.969,0.046,22.93,110.2425,25.52,26.39,14.02,0,111.2,13.09,26.36,162.5
"2010-09-27 00:53:00",196247,1.57,201.3,1.001,0.047,22.94,110.2428,25.52,26.39,14.04,0,111.2,13.09,26.36,163.3
"2010-09-27 00:53:30",196248,1.654,199.9,1.307,0.141,22.93,110.2483,25.53,26.38,13.99,0,111.2,13.09,26.37,161.9
"2010-09-27 00:54:00",196249,1.734,205,2.857,0.063,22.88,110.2484,25.53,26.38,13.91,0,111.2,13.09,26.37,167.0
"2010-09-27 00:54:30",196250,1.794,205.3,1.878,0.051,22.87,110.2461,25.53,26.39,13.88,0,111.2,13.09,26.37,167.3
"2010-09-27 00:55:00",196251,1.846,203.4,0.654,0.043,22.85,110.2405,25.51,26.37,13.86,0,111.2,13.09,26.35,165.4
"2010-09-27 00:55:30",196252,1.866,204.1,0.652,0.034,22.86,110.2391,25.51,26.38,13.88,0,111.2,13.09,26.35,166.1
"2010-09-27 00:56:00",196253,1.975,204.6,1.431,0.067,22.92,110.2391,25.51,26.38,13.87,0,111.2,13.09,26.35,166.6
"2010-09-27 00:56:30",196254,1.963,207.9,2.233,0.052,22.9,110.2394,25.51,26.37,13.86,0,111.2,13.09,26.35,169.9
"2010-09-27 00:57:00",196255,2.03,206.1,0.893,0.034,22.94,110.2398,25.51,26.38,13.88,0,111.2,13.09,26.35,168.1
"2010-09-27 00:57:30",196256,1.992,206.5,0.882,0.034,22.9,110.241,25.51,26.39,13.86,0,111.2,13.09,26.35,168.5
"2010-09-27 00:58:00",196257,2.053,204.9,0.842,0.046,22.92,110.2435,25.52,26.38,13.85,0,111.2,13.09,26.36,166.9
"2010-09-27 00:58:30",196258,1.992,206.1,1.221,0.03,22.92,110.2467,25.53,26.39,13.85,0,111.2,13.09,26.37,168.1
"2010-09-27 00:59:00",196259,1.989,210.8,1.319,0.028,22.93,110.2523,25.54,26.37,13.86,0,111.2,13.1,26.38,172.8
"2010-09-27 00:59:30",196260,1.915,209.4,0.873,0.056,22.89,110.2548,25.55,26.38,13.87,0,111.2,13.1,26.39,171.4
"2010-09-27 01:00:00",196261,1.834,207.2,1.458,0.084,22.93,110.2572,25.56,26.39,13.83,0,111.2,13.1,26.40,169.2
"2010-09-27 01:00:30",196262,1.52,209.9,2.358,0.166,22.95,110.2621,25.57,26.37,13.85,0,111.2,13.1,26.41,171.9
"2010-09-27 01:01:00",196263,1.125,214.8,4.136,0.151,22.96,110.2654,25.58,26.4,13.86,0,111.2,13.1,26.42,176.8
"2010-09-27 01:01:30",196264,1.402,209,3.237,0.148,22.99,110.267,25.58,26.38,13.84,0,111.2,13.1,26.42,171.0
"2010-09-27 01:02:00",196265,1.46,214.5,3.927,0.165,23,110.2679,25.58,26.41,13.83,0,111.2,13.1,26.42,176.5
"2010-09-27 01:02:30",196266,1.878,212.6,2.274,0.09,22.94,110.2698,25.59,26.41,13.81,0,111.1,13.1,26.43,174.6
"2010-09-27 01:03:00",196267,1.858,212.5,4.944,0.113,22.92,110.2719,25.59,26.41,13.79,0,111.1,13.1,26.43,174.5
"2010-09-27 01:03:30",196268,1.765,215.3,4.123,0.112,22.92,110.2751,25.6,26.41,13.77,0,111.1,13.11,26.44,177.3
"2010-09-27 01:04:00",196269,1.719,208.3,2.881,0.105,22.95,110.2749,25.6,26.41,13.8,0,111.1,13.11,26.44,170.3
"2010-09-27 01:04:30",196270,1.728,211.4,1.388,0.09,22.89,110.2749,25.6,26.39,13.76,0,111.1,13.11,26.44,173.4
"2010-09-27 01:05:00",196271,1.783,214.7,0.862,0.051,22.9,110.2628,25.57,26.41,13.74,0,111.1,13.11,26.41,176.7
"2010-09-27 01:05:30",196272,1.723,215.7,1.367,0.037,22.86,110.2513,25.54,26.4,13.74,0,111.1,13.11,26.38,177.7
"2010-09-27 01:06:00",196273,1.745,216.5,5.442,0.141,22.89,110.2471,25.53,26.41,13.76,0,111.1,13.11,26.37,178.5
"2010-09-27 01:06:30",196274,1.955,222.8,1.55,0.072,22.9,110.2437,25.52,26.4,13.77,0,111.1,13.11,26.36,184.8
"2010-09-27 01:07:00",196275,1.917,221.8,1.746,0.056,22.91,110.244,25.52,26.4,13.77,0,111.1,13.11,26.36,183.8
"2010-09-27 01:07:30",196276,1.726,222,2.156,0.169,22.94,110.2431,25.52,26.41,13.78,0,111.1,13.11,26.36,184.0
"2010-09-27 01:08:00",196277,1.79,222.6,2.162,0.176,22.92,110.2447,25.52,26.39,13.76,0,111.1,13.11,26.36,184.6
"2010-09-27 01:08:30",196278,2.11,224.4,0.469,0.042,22.86,110.2457,25.53,26.41,13.73,0,111.1,13.11,26.37,186.4
"2010-09-27 01:09:00",196279,2.054,226.1,1.417,0.061,22.91,110.2559,25.55,26.41,13.72,0,111.1,13.12,26.39,188.1
"2010-09-27 01:09:30",196280,1.984,226.7,1.455,0.091,22.87,110.2596,25.56,26.4,13.74,0,111.1,13.11,26.40,188.7
"2010-09-27 01:10:00",196281,1.954,226.6,0.854,0.054,22.89,110.2622,25.57,26.39,13.73,0,111.1,13.12,26.41,188.6
"2010-09-27 01:10:30",196282,2.123,227.3,1.251,0.053,22.85,110.2546,25.55,26.39,13.74,0,111.1,13.12,26.39,189.3
"2010-09-27 01:11:00",196283,2.214,228.2,0.753,0.074,22.86,110.2448,25.52,26.37,13.73,0,111.1,13.11,26.36,190.2
"2010-09-27 01:11:30",196284,2.538,230.8,2.452,0.102,22.84,110.241,25.51,26.39,13.77,0,111.1,13.11,26.35,192.8
"2010-09-27 01:12:00",196285,2.432,231.4,1.935,0.062,22.84,110.237,25.5,26.36,13.77,0,111.1,13.11,26.34,193.4
"2010-09-27 01:12:30",196286,2.359,229,1.46,0.117,22.88,110.2371,25.5,26.37,13.77,0,111.1,13.11,26.34,191.0
"2010-09-27 01:13:00",196287,2.364,230.2,0.977,0.052,22.84,110.2414,25.51,26.36,13.77,0,111.1,13.11,26.36,192.2
"2010-09-27 01:13:30",196288,2.328,233.5,3.573,0.117,22.85,110.2404,25.51,26.34,13.81,0,111.1,13.11,26.35,195.5
"2010-09-27 01:14:00",196289,2.311,233,2.993,0.072,22.85,110.227,25.48,26.34,13.87,0,111.1,13.11,26.32,195.0
"2010-09-27 01:14:30",196290,2.326,233.1,1.816,0.057,22.85,110.2208,25.46,26.33,13.89,0,111.1,13.11,26.30,195.1
"2010-09-27 01:15:00",196291,2.214,230.2,3.669,0.047,22.87,110.2149,25.45,26.33,13.86,0,111.1,13.11,26.29,192.2
"2010-09-27 01:15:30",196292,2.224,231.4,1.805,0.051,22.84,110.2129,25.44,26.32,13.84,0,111.1,13.11,26.28,193.4
"2010-09-27 01:16:00",196293,2.486,230.5,1.708,0.09,22.84,110.2123,25.44,26.32,13.87,0,111.1,13.12,26.28,192.5
"2010-09-27 01:16:30",196294,2.507,231.5,0.943,0.056,22.87,110.2123,25.44,26.32,13.86,0,111.1,13.12,26.28,193.5
"2010-09-27 01:17:00",196295,2.604,232.3,1.236,0.076,22.86,110.2123,25.44,26.31,13.85,0,111.1,13.13,26.28,194.3
"2010-09-27 01:17:30",196296,2.58,231.3,1.13,0.069,22.88,110.2123,25.44,26.31,13.88,0,111.1,13.13,26.28,193.3
"2010-09-27 01:18:00",196297,2.447,232.9,1.397,0.045,22.86,110.2123,25.44,26.31,13.87,0,111.1,13.13,26.28,194.9
"2010-09-27 01:18:30",196298,2.455,233.9,3.278,0.078,22.87,110.2121,25.44,26.32,13.85,0,111.1,13.13,26.28,195.9
"2010-09-27 01:19:00",196299,2.662,233.4,1.585,0.07,22.86,110.2104,25.44,26.3,13.88,0,111.1,13.13,26.28,195.4
"2010-09-27 01:19:30",196300,2.556,231.3,1.884,0.076,22.86,110.2081,25.43,26.31,13.88,0,111.1,13.13,26.27,193.3
"2010-09-27 01:20:00",196301,2.632,232.9,1.083,0.068,22.88,110.2022,25.41,26.31,13.9,0,111.1,13.13,26.25,194.9
"2010-09-27 01:20:30",196302,2.567,231.2,1.463,0.086,22.86,110.1973,25.4,26.31,13.92,0,111.1,13.13,26.24,193.2
"2010-09-27 01:21:00",196303,2.441,230.1,1.211,0.044,22.84,110.1976,25.4,26.3,13.9,0,111.1,13.13,26.24,192.1
"2010-09-27 01:21:30",196304,2.276,232.2,1.304,0.045,22.86,110.2014,25.41,26.28,13.87,0,111.1,13.13,26.25,194.2
"2010-09-27 01:22:00",196305,2.296,232.6,3.127,0.071,22.84,110.21,25.43,26.29,13.87,0,111.1,13.13,26.27,194.6
"2010-09-27 01:22:30",196306,2.418,229.6,4.192,0.086,22.82,110.2115,25.44,26.3,13.91,0,111.1,13.13,26.28,191.6
"2010-09-27 01:23:00",196307,2.386,228.8,3.69,0.113,22.84,110.213,25.44,26.3,13.91,0,111.1,13.13,26.28,190.8
"2010-09-27 01:23:30",196308,2.241,229.2,1.295,0.081,22.84,110.214,25.44,26.29,13.9,0,111.1,13.13,26.29,191.2
"2010-09-27 01:24:00",196309,2.211,233.4,2.04,0.044,22.85,110.2146,25.45,26.29,13.89,0,111.1,13.13,26.29,195.4
"2010-09-27 01:24:30",196310,2.345,232.5,1.62,0.065,22.86,110.2143,25.45,26.3,13.88,0,111.1,13.13,26.29,194.5
"2010-09-27 01:25:00",196311,2.468,232.2,1.388,0.057,22.86,110.2133,25.44,26.3,13.9,0,111.1,13.13,26.28,194.2
"2010-09-27 01:25:30",196312,2.467,231.6,1.106,0.119,22.85,110.2116,25.44,26.3,13.91,0,111.1,13.13,26.28,193.6
"2010-09-27 01:26:00",196313,2.681,232.8,1.023,0.071,22.85,110.2099,25.43,26.29,13.92,0,111.1,13.13,26.27,194.8
"2010-09-27 01:26:30",196314,2.528,231,1.654,0.084,22.85,110.2145,25.45,26.29,13.9,0,111.1,13.13,26.29,193.0
"2010-09-27 01:27:00",196315,2.529,232.4,0.998,0.066,22.86,110.2152,25.45,26.28,13.9,0,111.1,13.13,26.29,194.4
"2010-09-27 01:27:30",196316,2.683,230.9,1.726,0.074,22.85,110.2155,25.45,26.29,13.89,0,111.1,13.13,26.29,192.9
"2010-09-27 01:28:00",196317,2.828,234.2,2.314,0.058,22.82,110.2158,25.45,26.29,13.94,0,111,13.13,26.29,196.2
"2010-09-27 01:28:30",196318,2.759,234.1,1.655,0.061,22.82,110.2149,25.45,26.28,13.98,0,111,13.13,26.29,196.1
"2010-09-27 01:29:00",196319,2.756,236.2,2.139,0.088,22.88,110.2116,25.44,26.28,13.92,0,111,13.13,26.28,198.2
"2010-09-27 01:29:30",196320,2.625,234,1.67,0.101,22.89,110.2124,25.44,26.28,13.9,0,111,13.13,26.28,196.0
"2010-09-27 01:30:00",196321,2.624,233.7,3.084,0.127,22.88,110.2088,25.43,26.28,13.94,0,111,13.13,26.27,195.7
"2010-09-27 01:30:30",196322,2.578,231.9,1.213,0.074,22.86,110.2079,25.43,26.27,13.93,0,111,13.13,26.27,193.9
"2010-09-27 01:31:00",196323,2.643,232,0.657,0.066,22.84,110.1995,25.41,26.28,13.97,0,111,13.13,26.25,194.0
"2010-09-27 01:31:30",196324,2.587,232.5,1.145,0.169,22.84,110.1919,25.39,26.27,13.93,0,111,13.13,26.23,194.5
"2010-09-27 01:32:00",196325,2.334,232.8,2.212,0.095,22.83,110.1927,25.39,26.27,13.93,0,111,13.13,26.23,194.8
"2010-09-27 01:32:30",196326,2.377,230.2,0.931,0.047,22.84,110.1939,25.39,26.27,13.9,0,111,13.13,26.23,192.2
"2010-09-27 01:33:00",196327,2.537,228.6,1.023,0.121,22.82,110.2,25.41,26.27,13.9,0,111,13.13,26.25,190.6
"2010-09-27 01:33:30",196328,2.773,231.3,1.366,0.061,22.82,110.1965,25.4,26.27,13.92,0,111,13.13,26.24,193.3
"2010-09-27 01:34:00",196329,2.836,232.6,1.051,0.057,22.8,110.195,25.4,26.26,13.93,0,111,13.14,26.24,194.6
"2010-09-27 01:34:30",196330,2.872,231.5,1.127,0.06,22.83,110.1935,25.39,26.27,13.92,0,111,13.14,26.23,193.5
"2010-09-27 01:35:00",196331,2.926,231.3,0.896,0.06,22.82,110.1945,25.39,26.27,13.9,0,111,13.14,26.23,193.3
"2010-09-27 01:35:30",196332,2.897,232.6,0.801,0.053,22.82,110.1942,25.39,26.28,13.88,0,111,13.14,26.23,194.6
"2010-09-27 01:36:00",196333,2.843,232,1.641,0.072,22.84,110.1976,25.4,26.27,13.88,0,111,13.14,26.24,194.0
"2010-09-27 01:36:30",196334,2.823,231.6,1.133,0.07,22.83,110.201,25.41,26.28,13.87,0,111,13.14,26.25,193.6
"2010-09-27 01:37:00",196335,2.802,233.4,1.968,0.04,22.85,110.2013,25.41,26.27,13.86,0,111,13.14,26.25,195.4
"2010-09-27 01:37:30",196336,2.728,235.6,1.081,0.087,22.85,110.2032,25.42,26.27,13.85,0,111,13.14,26.26,197.6
"2010-09-27 01:38:00",196337,2.762,232,2.369,0.125,22.84,110.2075,25.43,26.27,13.84,0,111,13.14,26.27,194.0
"2010-09-27 01:38:30",196338,2.726,232.4,2.855,0.086,22.86,110.2075,25.43,26.28,13.84,0,111,13.14,26.27,194.4
"2010-09-27 01:39:00",196339,2.571,236.5,2.166,0.095,22.87,110.209,25.43,26.26,13.83,0,111,13.14,26.27,198.5
"2010-09-27 01:39:30",196340,2.663,235.6,1.499,0.095,22.86,110.2097,25.43,26.28,13.83,0,111,13.14,26.27,197.6
"2010-09-27 01:40:00",196341,2.742,237.6,1.989,0.071,22.83,110.2103,25.43,26.27,13.82,0,111,13.14,26.28,199.6
"2010-09-27 01:40:30",196342,2.662,235.9,1.159,0.068,22.85,110.2106,25.44,26.3,13.8,0,111,13.14,26.28,197.9
"2010-09-27 01:41:00",196343,2.593,235.9,2.72,0.069,22.86,110.2156,25.45,26.28,13.8,0,111,13.14,26.29,197.9
"2010-09-27 01:41:30",196344,2.615,234.9,2.782,0.085,22.84,110.2153,25.45,26.3,13.83,0,111,13.14,26.29,196.9
"2010-09-27 01:42:00",196345,2.441,234.6,1.513,0.095,22.84,110.2162,25.45,26.28,13.81,0,111,13.14,26.29,196.6
"2010-09-27 01:42:30",196346,2.437,234.4,1.86,0.071,22.85,110.2175,25.45,26.29,13.79,0,111,13.14,26.29,196.4
"2010-09-27 01:43:00",196347,2.769,236.5,0.89,0.134,22.85,110.2181,25.45,26.29,13.8,0,111,13.14,26.30,198.5
"2010-09-27 01:43:30",196348,2.904,236.4,0.818,0.034,22.87,110.2159,25.45,26.3,13.82,0,111,13.14,26.29,198.4
"2010-09-27 01:44:00",196349,2.855,233.7,2.049,0.064,22.84,110.2139,25.44,26.29,13.8,0,111,13.14,26.28,195.7
"2010-09-27 01:44:30",196350,3.015,234.1,0.755,0.041,22.81,110.2168,25.45,26.31,13.77,0,111,13.14,26.29,196.1
"2010-09-27 01:45:00",196351,3.008,234,1.47,0.082,22.83,110.217,25.45,26.3,13.77,0,111,13.14,26.29,196.0
"2010-09-27 01:45:30",196352,3.01,234.7,0.987,0.07,22.84,110.2145,25.45,26.29,13.79,0,111,13.14,26.29,196.7
"2010-09-27 01:46:00",196353,2.983,237,1.632,0.061,22.9,110.2177,25.45,26.29,13.77,0,111,13.14,26.29,199.0
"2010-09-27 01:46:30",196354,3.021,235.8,0.769,0.042,22.84,110.2151,25.45,26.31,13.78,0,111,13.14,26.29,197.8
"2010-09-27 01:47:00",196355,3.125,235.9,1.471,0.071,22.89,110.217,25.45,26.29,13.76,0,111,13.14,26.29,197.9
"2010-09-27 01:47:30",196356,3.143,233.7,0.724,0.055,22.88,110.2177,25.45,26.3,13.75,0,111,13.14,26.29,195.7
"2010-09-27 01:48:00",196357,3.043,237.4,1.76,0.053,22.9,110.2177,25.45,26.3,13.78,0,111,13.14,26.29,199.4